FW2611 Weather Reports


Display with metric or nautical units.
time (UTC)temp
F
wind
direction
speed
MPH
gust
MPH
rain 1hr
in
rain 24hr
in
rain mn
in
humidity
%
barometer
mb
20260904083007 74 242 4.0 12.0 0.12 0.75 0.47 91 1012.7
20260904081512 74 230 4.0 14.0 0.44 0.75 0.47 91 1012.7
20260904080016 74 227 8.0 15.0 0.44 0.75 0.47 90 1012.8
20260904074503 74 199 8.0 19.0 0.44 0.78 0.47 88 1012.7
20260904073004 75 201 16.0 27.0 0.32 0.80 0.35 88 1013.2
20260904071515 79 287 8.0 19.0 0.00 0.54 0.03 83 1013.3
20260904070015 79 252 5.0 15.0 0.03 0.85 0.03 88 1012.1
20260904064519 79 243 4.0 9.0 0.03 0.85 0.03 89 1012.4
20260904063004 79 254 2.0 8.0 0.03 0.85 0.03 89 1012.3
20260904061506 79 297 1.0 4.0 0.03 0.85 0.03 88 1012.1
20260904060012 78 244 1.0 4.0 0.00 0.82 0.00 88 1012.5
20260904055120 78 173 1.0 3.0 0.00 0.82 0.00 88 1012.5
20260904051505 78 175 0.0 4.0 0.00 0.82 0.00 87 1012.8
20260904050007 78 180 0.0 1.0 0.00 0.82 0.00 86 1013.1
20260904044515 78 180 0.0 3.0 0.00 0.82 0.00 86 1012.8
20260904043029 79 235 0.0 1.0 0.00 0.82 0.00 84 1013.3
20260904041529 79 236 0.0 1.0 0.00 0.82 0.00 83 1013.4
20260904040004 79 236 0.0 2.0 0.00 0.82 0.00 83 1013.8
20260904034508 79 237 0.0 2.0 0.00 0.82 0.82 80 1013.9
20260904033022 80 237 1.0 4.0 0.00 0.82 0.82 80 1014.2
20260904031522 80 247 1.0 4.0 0.00 0.82 0.82 77 1014.2
20260904030036 80 246 1.0 3.0 0.00 0.82 0.82 76 1013.7
20260904024508 81 244 1.0 4.0 0.00 0.82 0.82 76 1013.5
20260904023011 81 247 0.0 4.0 0.00 0.82 0.82 76 1013.9
20260904021527 81 251 1.0 6.0 0.00 0.82 0.82 76 1014.1
20260904020024 81 273 1.0 6.0 0.00 0.82 0.82 75 1014.5
20260904014528 81 258 0.0 4.0 0.00 0.82 0.82 74 1014.5
20260904013013 81 266 2.0 7.0 0.00 0.82 0.82 74 1014.6
20260904011515 81 266 2.0 7.0 0.00 0.82 0.82 75 1014.6
20260904010024 81 267 2.0 6.0 0.00 0.82 0.82 76 1014.8
20260904004530 81 248 2.0 6.0 0.00 0.82 0.82 77 1014.9
20260904003034 82 274 2.0 7.0 0.00 0.82 0.82 75 1014.5
20260904001532 82 265 2.0 8.0 0.00 0.82 0.82 75 1014.4
20260904000017 82 287 3.0 10.0 0.00 0.82 0.82 74 1014.2
20260903234524 83 283 4.0 10.0 0.00 0.82 0.82 74 1014.1
20260903233036 84 238 2.0 8.0 0.00 0.82 0.82 74 1014.0
20260903231541 84 258 5.0 11.0 0.00 0.82 0.82 72 1013.8
20260903230035 86 253 5.0 12.0 0.00 0.82 0.82 70 1013.5
20260903224515 86 239 5.0 12.0 0.00 0.82 0.82 70 1013.5
20260903223027 87 242 5.0 11.0 0.00 0.82 0.82 69 1013.5
20260903221532 87 252 6.0 12.0 0.00 0.82 0.82 69 1013.6
20260903220038 87 241 5.0 14.0 0.00 0.82 0.82 68 1013.4
20260903214534 88 245 8.0 15.0 0.00 0.82 0.82 68 1013.7
20260903213021 88 249 5.0 16.0 0.00 0.82 0.82 68 1013.7
20260903211541 88 254 7.0 13.0 0.00 0.82 0.82 67 1013.7
20260903210008 89 256 10.0 17.0 0.00 0.82 0.82 64 1013.8
20260903204511 89 269 7.0 17.0 0.00 0.82 0.82 64 1013.8
20260903203002 89 218 7.0 15.0 0.00 0.82 0.82 64 1013.8
20260903201504 89 246 10.0 17.0 0.00 0.82 0.82 63 1014.0
20260903200009 89 255 11.0 21.0 0.00 0.82 0.82 62 1014.0
20260903194508 88 279 8.0 17.0 0.00 0.82 0.82 64 1014.4
20260903193017 88 263 4.0 15.0 0.00 0.83 0.82 66 1014.6
20260903191510 88 279 8.0 14.0 0.00 0.84 0.82 66 1014.8
20260903190004 87 237 5.0 11.0 0.00 0.84 0.82 67 1014.8
20260903184508 87 267 7.0 11.0 0.00 0.84 0.82 69 1015.2
20260903183014 87 227 5.0 12.0 0.00 0.84 0.82 69 1015.1
20260903181516 86 268 6.0 11.0 0.00 0.84 0.82 70 1015.3
20260903180004 86 275 5.0 12.0 0.00 0.84 0.82 70 1015.3
20260903174503 85 236 5.0 13.0 0.00 0.84 0.82 73 1015.6
20260903173007 85 281 6.0 15.0 0.00 0.84 0.82 73 1015.9
20260903171512 85 257 5.0 15.0 0.00 0.84 0.82 73 1016.2
20260903170029 85 265 6.0 14.0 0.00 0.84 0.82 72 1016.5
20260903164503 84 239 9.0 17.0 0.00 0.84 0.82 72 1016.7
20260903163006 85 271 8.0 15.0 0.00 0.84 0.82 70 1016.7
20260903161512 85 254 4.0 10.0 0.00 0.84 0.82 72 1016.5
20260903160018 84 261 4.0 10.0 0.00 0.84 0.82 73 1016.6
20260903154523 83 275 3.0 10.0 0.00 0.84 0.82 75 1016.5
20260903153005 82 263 5.0 13.0 0.00 0.84 0.82 76 1016.5
20260903151508 81 205 6.0 15.0 0.00 0.84 0.82 77 1016.5
20260903150012 80 229 5.0 13.0 0.00 0.84 0.82 81 1016.3
20260903144516 79 201 6.0 14.0 0.00 0.84 0.82 85 1016.2
20260903143037 77 209 8.0 19.0 0.00 0.84 0.82 85 1016.0
20260903141504 77 218 9.0 17.0 0.00 0.84 0.82 87 1015.6
20260903140008 76 196 9.0 17.0 0.00 0.84 0.82 88 1015.5
20260903134521 75 209 10.0 18.0 0.00 0.84 0.82 88 1015.7
20260903133020 74 219 10.0 17.0 0.00 0.84 0.82 89 1015.8
20260903131528 74 176 6.0 12.0 0.00 0.84 0.82 90 1015.1
20260903130031 74 178 2.0 15.0 0.00 0.84 0.82 91 1015.7
20260903124514 74 232 8.0 13.0 0.00 0.84 0.82 90 1017.6
20260903123004 73 267 4.0 10.0 0.01 0.84 0.82 90 1018.3
20260903121508 73 199 3.0 11.0 0.01 0.84 0.82 91 1017.7
20260903120006 73 225 4.0 10.0 0.01 0.84 0.82 92 1017.5
20260903114503 72 206 4.0 11.0 0.01 0.84 0.82 92 1017.7
20260903113008 72 200 3.0 8.0 0.00 0.83 0.81 93 1017.7
20260903111506 72 205 3.0 7.0 0.00 0.83 0.81 93 1017.7
20260903110007 71 223 1.0 4.0 0.02 0.83 0.81 93 1017.9
20260903104510 71 238 0.0 0.0 0.18 0.83 0.81 93 1017.9
20260903103008 71 238 0.0 0.0 0.21 0.83 0.81 93 1018.0
20260903101526 71 238 0.0 4.0 0.23 0.83 0.81 93 1018.4
20260903100011 72 275 2.0 9.0 0.21 0.81 0.79 93 1018.5
20260903094508 72 242 0.0 0.0 0.08 0.65 0.63 93 1018.4
20260903093012 73 5 0.0 0.0 0.06 0.62 0.60 93 1017.6
20260903091513 73 47 0.0 0.0 0.04 0.60 0.58 93 1017.4
20260903090014 73 226 0.0 0.0 0.04 0.60 0.58 93 1017.6
20260903084525 73 89 0.0 0.0 0.04 0.57 0.55 93 1017.6